Flag for Falkland Islands Weather past 2 weeks in Stanley, Falkland Islands

Now
36 °F

Passing clouds.


Feels Like: 28 °F
Forecast: 39 / 44 °F
Wind: 10 mph from West

Location: Mount Pleasant Airport


UV Index: 0 (Low)

Visibility: N/A


Pressure: 29.95 "Hg

Humidity: 93%

Dew point: 34 °F

Location of StanleyLocation

Historic Weather in Stanley

°F

Stanley temperature yesterday

Maximum temperature yesterday: 41 °F (at 10:50 AM)
Minimum temperature yesterday: 32 °F (at 12:50 AM)
Average temperature yesterday: 37 °F

Past Weeks' High & Low Weather Summary

 TemperatureHumidityPressure
High57 °F (Apr 8, 11:50 AM)100% (Apr 7, 6:50 PM)30.09 "Hg (Apr 7, 6:50 PM)
Low30 °F (Apr 19, 6:50 AM)46% (Apr 11, 1:50 PM)29.00 "Hg (Apr 10, 10:50 PM)
Average43 °F85%29.60 "Hg
* Reported Apr 6 6:50 AM — Apr 21 6:50 AM, Stanley, Weather by CustomWeather, © 2014

Note: Actual official high and low records may vary slightly from our data, if they occured in-between our weather recording intervals... More about our weather records

Advertising

Historic Weather Conditions — Data for Previous 24 hours

 ConditionsComfort  
Time TempWeatherWind HumidityBarometerVisibility
6:50 AM
Apr 21
36 °FSprinkles. Passing clouds.7 mph93%29.95 "HgN/A
5:50 AM34 °FPassing clouds.8 mph87%29.92 "HgN/A
4:50 AM36 °FPassing clouds.12 mph87%29.92 "HgN/A
3:50 AM36 °FPassing clouds.10 mph81%29.89 "HgN/A
2:50 AM36 °FPassing clouds.12 mph81%29.89 "HgN/A
1:50 AM36 °FPassing clouds.9 mph87%29.89 "HgN/A
12:50 AM37 °FPassing clouds.13 mph81%29.86 "HgN/A
11:50 PM
Apr 20
36 °FPassing clouds.14 mph81%29.86 "HgN/A
10:50 PM37 °FPassing clouds.17 mph81%29.83 "HgN/A
9:50 PM37 °FPassing clouds.16 mph87%29.80 "HgN/A
8:50 PM39 °FPassing clouds.16 mph75%29.77 "HgN/A
7:50 PM37 °FPassing clouds.18 mph81%29.74 "HgN/A
6:50 PM39 °FScattered clouds.18 mph81%29.71 "HgN/A
5:50 PM37 °FPassing clouds.18 mph87%29.68 "HgN/A
4:50 PM37 °FScattered clouds.20 mph87%29.65 "HgN/A
3:50 PM41 °FScattered clouds.21 mph70%29.62 "HgN/A
2:50 PM39 °FSprinkles. Partly sunny.20 mph81%29.56 "HgN/A
1:50 PM41 °FPartly sunny.23 mph81%29.53 "HgN/A
12:50 PM39 °FPassing clouds.23 mph87%29.50 "HgN/A
11:50 AM41 °FScattered clouds.20 mph87%29.47 "HgN/A
10:50 AM41 °FScattered clouds.20 mph87%29.45 "HgN/A
9:50 AM39 °FScattered clouds.18 mph87%29.45 "HgN/A
8:50 AM37 °FSprinkles. Partly sunny.22 mph93%29.42 "HgN/A
Weather by CustomWeather, © 2014

See weather overview